Regional Weather Roundup
Issued by NWS Green Bay, WI

Home | Current Version | Previous Version | Graphics & Text | Print | Product List | Glossary Off
Versions: 1 2 3 4 5 6 7 8 9 10 11 12 13 14 15 16 17 18 19 20 21 22 23 24 25 26 27 28 29 30 31 32 33 34 35 36 37 38 39 40 41 42 43 44 45 46 47 48 49 50

000
ASUS43 KGRB 180010
RWRGRB

NORTH-CENTRAL AND NORTHEAST WISCONSIN REGIONAL WEATHER ROUNDUP
NATIONAL WEATHER SERVICE GREEN BAY WI
700 PM CDT FRI APR 17 2015

WIZ005-009-010>012-018-019-180100-
NORTH CENTRAL WISCONSIN

CITY           SKY/WX    TMP DP  RH WIND       PRES   REMARKS
IRONWOOD       CLEAR     64  28  25 W7        29.94S
MANITOWISH WTR CLEAR     67  27  22 W7        29.97S
ARBOR VITAE    CLEAR     69  24  18 W6        29.97S
EAGLE RIVER    CLEAR     68  22  17 NW8       29.96S
LAND O LAKES   CLEAR     67  25  20 N6        29.97S
RHINELANDER    CLEAR     70  29  21 W10       29.97S
PHILLIPS       CLEAR     69  29  22 NW6       29.97S
ANTIGO         CLEAR     68  43  40 W14       29.96S
TOMAHAWK       CLEAR     69  33  25 W7        29.97S
MERRILL        CLEAR     70  40  33 W9        29.96S
$$

WIZ013-073-180100-
NORTHEAST WISCONSIN

CITY           SKY/WX    TMP DP  RH WIND       PRES   REMARKS
IRON MOUNTAIN  CLEAR     64  41  42 SE10      29.93S
MARINETTE      CLEAR     57  37  47 SE9       29.96F
OCONTO         CLEAR     59  40  48 SE8       29.95F
$$

WIZ017-030-035>037-045-180100-
CENTRAL WISCONSIN

CITY           SKY/WX    TMP DP  RH WIND       PRES   REMARKS
MEDFORD        CLEAR     68  38  33 W12       29.98S
WAUSAU         CLEAR     70  40  33 W10       29.95F
MOSINEE        CLEAR     70  39  32 W10       29.98F
MARSHFIELD     CLEAR     71  42  35 W8        29.98S
WISC RAPIDS    CLEAR     74  37  26 NW7       29.98S
STEVENS POINT  CLEAR     71  42  35 W3        29.97F
WAUPACA        PTCLDY    75  38  26 W6        29.96S
SHAWANO        PTCLDY    75  40  29 SW5       29.94S
CLINTONVILLE   PTCLDY    73  37  27 W10       29.94S
$$

WIZ038-039-048-051-180100-
FOX VALLEY

CITY           SKY/WX    TMP DP  RH WIND       PRES   REMARKS
NWS GREEN BAY  CLEAR     67  44  43 S13       29.96S
APPLETON       PTCLDY    68  43  40 S10       29.97S
OSHKOSH        PTCLDY    68  46  45 SE7       29.96F
FOND DU LAC    PTCLDY    68  46  45 SE9       29.97F
$$

WIZ022-050-052-180100-
EAST CENTRAL WISCONSIN

CITY           SKY/WX    TMP DP  RH WIND       PRES   REMARKS
STURGEON BAY   CLEAR     55  37  50 SE9       29.99F
MANITOWOC      CLEAR     49  42  77 SE7       29.99F
SHEBOYGAN      CLEAR     58  42  55 S8        30.00F
$$

LMZ563-521-522-541>543-180100-
LAKESHORE

STATION/POSITION TIME  TEMP    WIND        PRES    VSBY  WAVE
                       AIR SEA DIR/SP/G                  HT/PER
                 (UTC) (F)     (DEG/KT/KT) (MB)    (MI)  (FT/S)
SHEBOYGAN LKSHOR 0000   42     170/ 10/ 11 1016.3F
KEWAUNEE LKSHORE 0000   47     170/  4/  6 1014.9S
NORTHPORT PIER   0000   54     160/  7/ 13 1014.9S
SISTER BAY LKSHO 0000   57     140/ 11/ 17   N/A
CHAMBERS ISLAND  0000   58     110/  4/  8 1014.9F
MENOMINEE LKSHOR 0000   51     150/  8/  9 1015.2F
$$


USA.gov is the U.S. government's official web portal to all federal, state and local government web resources and services.